Simultaneous Nadir Overpasses (SNOs) Predictions

Prediction of SNOs between NOAA-15 and METOP-C Satellite Orbit:

Table of predicted SNOs for the next 14.0 days since TLE Epoch: 6/14/2024
Index Date (NOAA-15) Time (NOAA-15) Lat,Lon (NOAA-15) SZA (NOAA-15 ) Date (METOP-C) Time (METOP-C) Lat,Lon (METOP-C) SZA (METOP-C ) Distance(km) Time Diff (sec)
1 06/23/2024 16:06:24 -81.03, 156.96 120.39 06/23/2024 16:05:12 -81.05, 156.90 120.42 1.85 72
2 06/23/2024 16:56:52 81.04, -35.86 59.60 06/23/2024 16:55:52 81.05, -35.69 59.60 2.99 60
3 06/23/2024 17:47:25 -81.06, 131.27 120.42 06/23/2024 17:46:34 -81.04, 131.43 120.43 3.08 51
4 06/23/2024 18:37:52 81.05, -61.18 59.60 06/23/2024 18:37:14 81.05, -61.16 59.58 0.40 38
5 06/23/2024 19:28:24 -81.04, 106.31 120.40 06/23/2024 19:27:55 -81.05, 106.33 120.40 1.12 29
6 06/23/2024 20:18:52 81.05, -86.50 59.60 06/23/2024 20:18:36 81.04, -86.63 59.57 2.62 16
7 06/23/2024 21:09:24 -81.04, 80.99 120.40 06/23/2024 21:09:17 -81.05, 80.86 120.42 2.29 7
8 06/23/2024 21:59:52 81.05,-111.82 59.59 06/23/2024 21:59:57 81.05,-111.73 59.60 1.62 5
9 06/23/2024 22:50:24 -81.05, 55.66 120.40 06/23/2024 22:50:38 -81.06, 55.76 120.38 1.76 14
10 06/23/2024 23:40:52 81.06,-137.14 59.59 06/23/2024 23:41:19 81.04,-137.20 59.58 1.90 27
11 06/24/2024 00:31:24 -81.05, 30.34 120.41 06/24/2024 00:32:00 -81.05, 30.29 120.40 0.94 36
12 06/24/2024 01:21:52 81.06,-162.46 59.59 06/24/2024 01:22:40 81.05,-162.31 59.62 2.88 48
13 06/24/2024 02:12:24 -81.06, 5.01 120.41 06/24/2024 02:13:21 -81.06, 5.19 120.37 3.01 57



Historial Predications of SNOs between NOAA-15 and METOP-C
